GFSCGP_sfc_30mbdewp_078.txt.gz
Dewpoint
29 26 24 25 26 24 24 24 23 24 23 28 28 28 29 43 44 44 47 49 49 50 52 53 53 53 53 53 52 51 51 52 52 51 49 46 44 47 49 49 53 54 55 57
28 26 26 27 26 25 24 23 23 22 21 26 23 20 25 41 43 44 46 48 48 50 52 52 53 51 51 52 52 51 50 51 51 50 48 46 48 52 52 50 51 55 56 57
24 27 28 27 26 26 25 23 22 18 22 23 24 22 23 36 41 45 47 47 49 50 51 51 52 52 51 51 52 51 50 50 51 50 49 52 53 53 52 52 52 55 57 59
20 25 27 27 26 26 23 24 23 24 23 21 25 20 25 28 36 43 44 45 48 50 51 52 52 52 52 52 53 52 51 49 50 51 50 50 50 48 50 50 52 56 58 59
19 23 24 25 26 27 25 26 23 24 22 23 23 23 23 27 34 39 44 46 48 50 51 51 51 51 52 52 52 51 50 50 50 51 50 51 52 52 52 52 53 57 58 59
18 21 24 24 26 26 26 24 24 26 24 21 22 24 22 25 26 37 42 45 47 49 51 51 51 51 51 51 52 50 50 49 50 50 52 54 53 53 51 51 52 55 58 59
16 17 20 23 22 23 24 22 19 18 20 19 28 26 23 26 26 32 41 43 46 48 48 50 51 50 49 49 50 50 49 49 50 52 54 56 56 54 51 51 52 54 56 57
18 18 20 22 21 20 21 21 20 18 20 25 29 24 22 25 28 27 36 43 44 47 48 47 50 50 46 47 48 48 48 49 50 51 56 57 56 55 53 51 54 55 56 57
20 19 21 20 21 21 21 22 25 24 30 27 28 28 25 22 24 22 29 42 44 44 47 47 47 49 49 44 46 48 49 50 50 51 55 57 57 55 53 52 53 57 57 57
23 18 20 20 20 22 22 26 24 29 23 24 24 26 23 20 19 20 26 38 43 43 45 47 48 48 49 49 47 48 49 49 50 52 54 55 56 56 54 54 54 56 57 57
24 23 20 21 18 18 22 22 24 25 27 22 21 21 27 24 24 20 24 30 37 43 44 45 46 48 49 50 50 50 51 51 52 53 55 55 55 56 56 55 56 57 57 56
23 23 21 20 22 23 21 20 22 22 24 26 24 22 26 26 24 21 20 25 30 36 41 45 46 46 48 50 51 51 51 53 53 54 54 56 57 56 57 58 57 57 57 57
23 22 20 18 20 24 22 22 23 24 26 24 25 24 29 26 26 22 21 24 27 31 34 36 39 43 46 48 49 50 53 54 54 55 55 55 57 58 57 58 57 58 57 54
36 25 20 17 19 24 23 22 22 22 21 22 25 24 26 26 27 26 24 24 26 28 34 35 38 42 45 48 49 50 52 55 55 54 55 55 55 56 56 54 54 53 52 50
32 24 27 22 26 27 26 25 22 22 23 20 21 24 25 28 28 27 25 25 28 28 31 35 38 44 51 52 53 53 54 54 54 53 52 51 50 50 50 49 49 48 48 47
36 26 29 28 30 29 28 26 24 22 21 22 23 24 27 27 29 25 24 25 27 27 32 33 36 50 52 52 51 51 51 51 51 50 49 48 48 48 47 47 46 46 45 44
37 30 28 26 29 28 27 28 26 25 24 22 21 23 24 25 24 24 21 27 28 28 33 38 41 50 52 51 51 50 49 49 49 48 48 47 47 46 45 45 45 44 44 43
35 35 29 25 26 25 30 28 26 24 24 23 22 21 22 21 21 22 23 24 29 32 38 48 52 51 50 49 49 49 48 48 47 47 47 46 46 45 44 44 43 43 43 42
37 36 30 25 25 29 28 27 23 22 21 23 21 20 22 23 27 27 30 31 31 38 47 51 51 49 49 48 48 48 47 47 47 46 45 45 44 43 43 42 42 42 41 40
38 37 33 31 24 22 25 28 29 27 22 25 23 22 22 26 22 26 31 36 40 45 51 51 50 49 48 48 47 47 46 46 45 44 44 43 43 42 42 41 40 40 39 39
32 34 31 30 30 31 33 32 28 24 23 26 26 25 26 25 26 27 35 40 45 49 51 50 49 49 48 47 47 45 45 44 43 43 42 42 41 41 40 40 39 39 34 32
29 31 32 33 30 28 36 33 26 28 29 32 31 31 30 31 34 35 39 42 45 47 50 49 49 47 47 46 45 44 43 42 41 41 40 40 40 39 39 38 37 32 29 28
26 34 32 31 31 34 37 39 39 38 35 35 36 37 36 35 36 39 40 43 45 46 45 46 47 45 45 44 43 41 40 40 40 40 39 37 35 35 33 33 31 29 27 25
33 38 33 32 32 35 35 35 36 36 37 37 36 37 38 36 39 40 41 41 43 43 43 42 43 42 41 41 41 40 40 39 34 29 25 24 23 25 25 25 25 25 24 24
27 34 33 33 31 32 32 33 31 36 37 41 40 36 37 38 39 40 39 40 41 41 41 39 37 34 34 37 37 36 33 27 22 22 21 21 22 24 25 24 23 20 24 25
29 31 30 27 28 28 29 28 31 34 36 40 38 37 37 39 39 39 38 39 40 36 32 25 23 23 24 24 24 24 23 22 20 20 22 23 23 23 22 21 21 25 24 21

GFSCGP_sfc_30mbdewp_081.txt.gz
Dewpoint
28 26 25 26 26 25 24 24 23 23 24 24 24 27 29 42 45 45 49 49 47 48 51 52 54 54 54 53 53 54 53 53 52 52 52 51 52 50 51 53 55 56 57 56
26 26 28 26 26 25 25 24 22 24 24 24 24 25 24 38 42 43 45 48 48 48 50 52 51 53 53 53 52 52 52 51 52 51 50 51 51 51 50 50 52 54 55 56
22 26 27 26 25 25 25 24 23 23 24 24 24 22 24 35 42 44 45 48 49 48 49 49 50 50 51 51 52 51 51 51 51 50 49 49 49 50 49 50 50 53 54 56
21 23 27 26 24 26 23 26 26 24 23 21 24 20 23 27 36 43 43 46 48 48 50 50 50 49 50 50 52 51 50 51 51 51 49 48 46 44 42 44 48 52 55 57
18 20 21 24 27 27 25 27 26 25 24 23 22 22 22 29 32 37 43 45 47 48 50 51 51 51 51 51 51 52 51 50 50 51 49 49 47 46 46 48 49 50 53 56
18 24 23 22 24 28 28 26 25 27 24 19 22 22 21 24 26 33 41 44 46 48 50 50 51 52 52 52 52 52 51 50 49 50 50 49 49 48 49 50 50 50 52 54
19 18 20 24 23 26 26 24 21 19 19 18 25 26 24 25 27 30 38 42 46 47 50 50 50 50 51 51 52 52 51 49 49 49 50 49 50 51 51 51 51 51 52 55
19 16 18 19 20 20 23 24 21 17 18 18 30 26 26 27 27 29 37 41 45 47 49 50 50 50 50 50 51 51 50 49 49 49 49 50 51 52 53 52 52 52 53 54
20 18 21 18 20 21 20 21 23 21 30 27 26 28 27 23 25 29 32 41 43 46 48 50 50 51 49 49 49 49 49 48 48 49 49 50 51 52 53 54 53 53 53 54
24 20 22 21 20 21 21 26 22 27 19 21 25 25 25 23 21 23 30 38 43 45 47 48 49 51 50 49 48 49 48 48 48 48 49 49 52 55 56 56 55 53 55 57
28 22 22 21 19 18 21 22 24 24 25 19 20 22 26 26 24 20 25 38 42 45 45 47 48 48 50 50 47 48 48 48 48 49 50 51 52 55 57 56 55 54 57 57
36 27 20 20 23 22 19 20 24 21 23 26 23 22 26 26 28 27 22 28 42 44 45 46 47 48 48 49 49 47 48 48 49 50 51 51 53 55 56 56 55 56 56 57
38 32 22 20 22 22 22 23 23 26 26 24 22 23 28 28 26 24 21 21 29 41 43 44 46 47 48 49 49 50 49 49 50 51 51 54 55 56 56 56 55 56 56 56
40 37 33 22 19 19 20 22 24 24 21 22 24 24 26 27 27 27 27 25 25 29 36 42 45 46 46 48 50 50 50 51 52 52 53 54 55 56 56 56 57 56 57 56
39 33 32 29 23 24 26 26 26 25 24 20 22 24 26 26 27 26 28 27 25 25 32 35 37 41 44 46 48 50 51 52 53 53 54 54 54 54 54 55 54 53 53 51
37 32 33 28 24 22 22 29 29 28 28 23 22 22 26 26 27 27 28 27 25 26 27 35 37 39 45 48 49 51 51 52 53 53 51 50 51 51 50 49 49 49 47 47
32 32 32 26 29 29 27 27 27 26 29 27 22 24 26 26 26 28 27 27 25 27 28 32 36 40 47 50 52 52 51 51 51 49 49 49 48 48 47 47 46 46 45 45
31 31 32 28 27 24 29 31 30 28 28 29 25 24 25 25 27 27 26 26 26 28 29 35 40 49 50 51 50 49 49 50 49 49 48 48 47 46 46 45 45 44 43 43
36 33 31 29 25 26 28 31 30 29 28 29 25 24 22 23 25 24 26 24 24 29 32 44 49 50 50 49 49 49 48 48 48 47 47 46 46 44 44 43 43 43 42 42
37 35 32 31 28 23 26 28 30 29 28 28 27 26 23 26 21 21 28 33 34 40 47 49 49 48 48 48 48 48 47 47 46 46 45 44 44 44 43 42 42 42 41 40
32 33 30 30 29 30 31 35 35 30 29 30 28 27 26 25 25 26 32 38 44 49 49 49 49 48 47 47 47 47 46 46 45 44 43 43 43 43 42 41 40 38 36 34
26 27 28 31 29 27 36 36 29 34 32 31 29 28 28 28 29 28 34 42 48 49 49 49 48 47 47 46 45 45 43 43 42 42 41 41 41 40 40 37 35 34 33 31
24 27 28 30 32 36 37 36 40 39 37 37 37 37 35 33 35 39 41 46 48 49 48 48 47 46 45 45 44 42 41 41 41 40 36 34 33 34 35 34 31 30 30 29
28 34 31 31 30 34 36 37 38 38 37 37 39 38 38 37 40 41 43 45 45 45 46 45 45 43 42 41 41 40 40 35 31 29 28 28 28 27 26 26 27 27 27 28
26 34 34 34 33 33 32 34 35 34 39 38 39 38 37 40 40 41 42 43 42 41 39 38 37 37 37 37 35 32 28 27 25 25 25 25 24 22 22 23 21 23 26 27
31 31 30 28 29 30 28 29 33 34 35 38 40 36 39 40 40 40 40 39 34 30 29 28 27 26 25 24 24 23 23 23 23 23 24 25 24 23 22 22 24 26 24 24

GFSCGP_sfc_30mbdewp_084.txt.gz
Dewpoint
28 26 25 27 27 24 23 23 22 23 24 23 22 23 24 35 43 43 47 49 49 49 49 53 54 54 54 55 55 54 54 54 54 53 54 53 53 54 55 55 55 55 54 54
27 24 25 27 27 25 25 23 22 23 23 24 23 23 25 29 37 43 45 48 48 48 49 51 53 53 53 53 54 54 53 53 54 54 55 55 52 52 53 54 55 56 55 54
22 24 26 27 26 25 25 23 23 19 24 25 23 22 23 28 40 43 45 47 48 47 49 49 50 52 53 52 52 53 52 52 53 54 52 50 50 51 51 52 53 55 56 56
24 24 25 27 25 25 22 26 24 24 23 21 24 20 22 23 25 39 43 46 47 48 49 50 50 50 51 52 52 52 52 51 51 52 51 48 50 49 49 49 50 51 54 56
21 20 22 22 26 26 23 25 25 25 24 24 23 23 21 25 25 26 37 44 47 48 48 49 50 50 50 50 52 51 51 51 51 50 50 48 48 48 45 46 46 49 52 54
20 23 21 20 25 27 28 26 26 27 25 22 23 21 19 21 24 28 32 41 46 48 48 49 50 51 50 50 51 51 50 50 51 50 50 48 47 46 46 46 46 48 50 52
20 19 20 24 22 26 27 24 20 20 22 20 22 22 20 23 25 27 28 35 44 47 48 49 50 51 51 50 50 50 51 50 50 50 50 49 49 48 47 47 47 47 48 50
7 7 19 19 21 22 25 24 21 18 18 19 27 23 23 28 29 28 29 35 44 47 48 49 50 51 51 51 50 50 51 50 50 50 50 50 49 49 49 49 49 49 49 50
20 17 21 19 19 20 21 24 24 23 28 24 24 27 28 28 24 25 28 39 43 46 48 49 50 50 50 51 51 51 51 50 50 49 49 50 50 49 49 50 51 52 52 53
23 22 22 21 19 20 19 26 22 25 18 18 23 25 20 25 25 23 28 34 39 45 47 49 50 50 50 50 50 51 51 50 49 49 49 49 49 50 51 52 53 53 53 53
36 24 19 19 20 17 20 19 23 24 23 18 18 21 27 24 24 26 23 30 36 42 46 48 50 51 51 50 50 50 50 49 48 48 49 48 49 50 50 51 53 54 55 54
37 35 28 20 19 20 21 19 20 19 22 25 21 19 26 25 27 27 23 23 34 41 44 47 48 49 51 50 49 49 49 49 48 48 48 49 49 49 51 53 54 55 55 55
33 33 28 23 22 22 21 22 23 26 26 22 20 20 26 25 27 27 27 27 25 34 43 45 47 48 49 50 50 49 49 49 49 49 48 49 50 51 51 53 55 56 55 55
35 31 30 27 29 31 28 20 21 23 21 21 22 23 25 26 26 27 26 25 23 25 35 43 45 46 48 49 49 50 48 48 49 49 49 49 51 52 53 55 55 56 55 55
35 29 31 32 35 35 33 29 21 21 22 21 22 23 25 26 26 27 28 29 28 25 30 37 42 44 46 48 49 50 50 50 49 49 49 50 51 53 54 54 55 55 55 55
37 29 32 28 27 31 30 29 24 25 27 27 25 24 26 27 27 27 27 28 28 27 25 31 35 41 44 46 47 49 50 51 51 51 51 52 53 53 53 53 52 53 52 51
33 32 29 22 27 30 27 24 26 27 29 27 24 26 26 25 26 27 27 27 27 28 28 27 32 35 39 45 48 49 50 52 52 51 51 51 51 51 50 50 50 49 48 47
29 31 31 26 29 24 29 28 26 26 26 29 29 28 28 27 27 28 28 27 27 28 28 28 33 42 48 50 50 50 51 51 50 49 49 49 49 49 48 47 47 45 45 44
32 32 29 24 25 30 30 30 29 28 26 27 27 29 29 28 25 24 26 28 29 28 29 31 40 47 49 49 49 50 49 49 49 48 48 48 47 46 45 44 43 43 43 42
33 33 29 29 25 21 26 31 36 32 26 31 31 30 29 27 23 22 24 28 26 29 39 44 49 50 49 49 49 49 48 48 46 46 45 45 45 44 43 43 42 42 40 37
30 30 27 28 27 30 34 39 39 27 27 34 33 31 29 27 27 27 29 39 45 47 47 48 48 47 47 48 48 47 47 45 44 44 44 43 43 43 42 41 40 38 35 32
23 25 28 30 28 24 37 37 35 38 38 39 38 38 35 33 32 32 36 47 48 47 47 47 46 46 47 47 46 45 43 42 42 42 41 40 40 39 38 37 36 34 32 29
21 25 24 28 29 32 34 35 35 38 42 39 38 38 40 37 36 41 44 48 48 47 47 46 45 45 45 44 43 41 41 40 37 36 35 34 33 34 34 34 33 32 31 28
23 32 28 31 27 31 30 30 34 38 39 41 35 38 40 39 40 43 45 46 46 46 44 45 44 41 41 41 41 41 39 36 35 33 31 29 28 27 26 27 29 29 29 28
23 27 25 28 32 33 34 35 34 34 37 38 36 39 41 43 42 43 42 39 37 37 38 39 38 37 35 33 31 31 30 29 28 27 25 24 23 23 23 25 25 27 28 29
26 24 25 23 26 31 29 31 35 36 36 39 41 41 41 41 41 35 32 31 31 30 29 28 26 25 25 25 25 25 26 26 26 25 25 25 25 26 26 25 25 27 27 26

GFSCGP_sfc_30mbdewp_087.txt.gz
Dewpoint
32 27 28 27 28 22 21 21 21 23 25 23 20 22 24 27 39 42 45 49 50 50 49 52 54 55 55 56 55 55 55 55 55 55 56 55 55 57 56 56 56 55 54 53
27 26 27 29 29 27 24 22 22 23 24 24 23 22 25 29 32 36 42 47 49 49 48 51 53 54 54 55 55 54 54 54 54 55 55 54 54 55 55 56 55 55 54 53
21 24 27 26 27 26 26 24 23 21 24 24 24 23 24 27 36 40 44 45 48 48 48 49 50 52 53 54 54 54 54 54 55 55 55 54 52 53 53 54 55 55 55 54
22 21 27 25 25 26 22 26 25 24 22 13 25 20 23 24 25 33 38 45 46 48 48 48 49 51 52 53 54 54 53 53 55 55 54 53 50 51 52 52 54 55 55 54
23 22 22 22 26 27 22 25 25 25 23 23 23 23 22 24 23 25 30 41 45 48 48 48 49 50 50 52 52 53 52 52 53 54 53 53 50 50 53 53 53 54 55 55
22 23 23 23 23 27 28 25 27 28 26 22 24 23 21 20 22 26 31 38 44 47 48 48 50 50 50 51 52 52 52 52 51 53 53 51 52 50 49 51 50 51 53 54
20 20 22 23 22 27 26 25 20 22 22 19 23 23 22 24 25 26 26 31 43 46 48 48 48 49 50 50 50 51 51 51 51 51 51 51 50 50 49 49 48 49 50 51
9 5 19 21 21 21 26 25 19 12 18 19 26 21 21 27 30 31 31 31 40 46 47 48 48 49 50 50 50 50 51 51 52 51 51 51 50 50 49 49 48 48 48 49
22 12 20 20 20 22 25 23 23 22 28 24 24 27 28 27 27 26 26 35 41 45 47 48 49 50 50 50 50 50 50 51 52 51 51 51 51 50 49 49 50 50 51 51
31 21 23 22 20 21 22 27 23 23 14 15 21 24 20 24 24 26 26 30 40 45 47 48 49 50 50 50 50 51 51 51 51 52 52 51 51 51 51 51 50 50 51 52
33 30 23 23 19 18 19 18 23 25 23 16 16 21 28 24 24 25 28 27 35 44 47 48 49 50 50 51 51 52 52 51 51 51 51 52 51 52 52 52 52 52 52 53
34 35 30 27 28 26 20 20 19 17 16 27 22 20 26 28 28 28 27 28 28 38 45 48 49 50 50 50 50 51 51 51 51 50 50 51 51 51 52 52 52 52 53 53
24 29 19 22 23 28 28 28 24 23 23 19 19 21 26 26 27 28 27 28 30 30 43 46 48 50 50 50 50 50 50 50 50 50 50 50 50 50 50 51 51 51 52 52
33 29 16 13 28 31 26 29 31 33 23 20 21 20 24 26 25 25 28 29 27 26 32 44 47 48 50 51 51 50 50 50 50 49 49 49 50 50 50 50 51 52 53 54
32 28 29 28 28 28 30 28 30 31 31 23 20 21 23 24 26 26 29 29 28 28 27 34 43 46 48 49 51 51 50 50 50 49 49 49 50 50 50 51 52 53 54 55
36 29 31 28 30 29 25 26 26 31 31 30 24 22 26 27 29 28 28 29 29 29 29 28 35 43 46 48 49 50 51 50 50 50 50 50 50 51 52 53 54 55 56 56
26 29 28 23 27 26 21 24 29 30 29 27 24 26 26 26 26 27 28 29 29 29 29 29 29 34 42 46 48 50 51 51 50 49 50 51 52 52 53 53 53 53 53 51
28 29 28 23 25 17 16 28 31 31 30 28 28 28 28 28 28 29 30 29 29 30 30 30 30 33 43 48 49 51 51 52 51 51 51 51 51 51 51 50 49 47 46 45
29 27 23 21 18 20 19 28 29 34 34 34 29 29 30 30 30 28 29 28 29 30 32 32 33 45 49 50 50 50 50 50 50 49 49 49 49 47 46 45 44 44 42 40
28 28 25 24 21 17 25 37 39 36 30 38 38 34 33 32 29 27 29 31 33 30 36 42 47 49 49 50 50 49 49 48 46 46 46 46 45 45 43 43 41 39 37 35
27 28 24 22 21 22 35 38 41 28 28 37 37 39 39 33 31 32 34 46 47 47 48 49 48 48 49 49 49 47 46 44 44 44 44 43 43 42 41 40 38 35 33 31
25 26 25 25 23 21 35 37 30 37 38 38 38 40 40 41 39 39 47 48 47 45 46 47 47 47 48 47 45 44 42 43 42 41 41 40 39 38 38 36 34 33 31 29
21 27 27 28 27 35 33 34 38 39 36 38 38 42 41 42 41 45 45 46 46 45 45 47 46 45 44 44 43 42 41 39 38 36 35 33 32 33 34 34 32 31 30 28
23 29 27 28 27 30 32 34 34 36 36 36 37 41 42 42 44 45 45 44 44 44 43 42 42 41 40 41 41 39 38 36 34 31 29 27 27 27 28 29 29 30 29 28
23 26 25 25 27 30 28 34 32 31 34 38 39 40 43 44 41 39 38 37 37 37 38 36 33 30 30 31 31 32 32 30 28 26 25 25 27 27 26 27 27 27 28 29
27 25 25 24 25 26 26 31 33 33 38 38 41 43 44 44 40 35 33 33 33 32 31 30 29 28 27 28 28 28 28 28 27 25 26 27 27 26 25 25 26 27 27 26

GFSCGP_sfc_30mbdewp_090.txt.gz
Dewpoint
26 23 22 20 23 20 17 15 14 13 19 21 16 15 20 22 24 31 36 39 44 46 49 50 51 54 54 56 56 56 56 56 56 56 56 56 56 57 58 57 55 53 53 53
26 22 19 22 23 24 19 16 15 16 18 21 17 16 20 22 23 28 32 38 42 46 48 49 51 53 53 55 55 56 56 55 55 56 56 56 56 57 57 57 56 53 54 52
20 19 21 23 25 23 20 18 18 17 18 20 17 16 16 20 26 30 34 35 40 45 46 48 50 51 53 55 55 55 55 55 55 56 55 56 56 56 55 56 56 55 52 52
18 16 22 23 21 21 16 18 20 21 19 14 21 11 15 21 21 22 26 37 39 44 46 47 49 50 52 54 55 54 55 55 55 55 53 54 53 52 52 53 54 56 54 53
18 21 18 22 22 22 20 18 20 21 19 18 16 12 13 21 21 20 25 29 39 44 46 46 48 49 51 53 54 54 55 55 55 54 53 53 51 52 52 53 52 54 55 55
21 23 22 20 22 25 27 24 24 24 22 18 18 12 13 17 18 20 26 31 37 43 45 46 47 49 50 52 52 54 54 54 55 55 54 53 51 51 52 51 53 53 51 51
11 14 19 22 20 21 24 19 16 18 18 16 15 16 15 21 22 23 22 26 37 42 45 46 47 48 48 51 52 52 52 53 54 55 54 53 52 50 51 51 51 52 50 51
5 3 7 14 14 18 22 20 18 15 14 14 18 17 17 23 23 26 30 31 34 41 45 46 46 48 48 50 51 51 51 51 52 54 54 54 53 50 50 52 50 50 50 52
17 5 19 14 16 14 19 20 21 20 18 19 18 22 24 25 24 24 26 27 32 39 43 45 46 48 49 48 50 52 51 51 52 52 53 53 53 51 50 49 51 52 51 51
24 20 21 22 21 17 15 19 19 20 15 13 15 19 18 21 21 22 23 26 32 40 42 43 46 48 49 49 49 51 51 50 51 53 53 52 53 52 51 51 50 50 51 50
25 28 21 24 20 17 18 19 21 20 19 14 13 14 22 23 22 22 23 29 32 40 43 43 44 48 49 50 49 50 51 50 50 51 52 52 52 52 51 51 51 50 50 50
20 28 24 26 26 27 24 19 19 18 17 21 19 17 23 27 27 28 27 29 29 37 42 44 45 47 49 50 50 50 50 50 50 51 51 52 52 52 52 51 52 53 52 52
21 25 19 18 24 29 27 29 28 28 25 19 19 19 22 22 24 25 24 28 29 33 38 43 46 47 48 49 50 50 50 50 50 50 50 51 52 53 53 53 53 52 52 53
22 19 12 8 15 23 22 24 24 25 26 22 21 19 20 20 23 25 24 27 28 31 34 40 44 46 48 49 49 50 50 50 50 49 49 50 51 52 52 52 53 53 53 52
22 14 18 21 21 21 20 19 22 23 23 24 25 24 21 21 22 22 21 24 28 28 28 36 41 44 46 48 49 50 50 51 51 49 49 49 50 50 50 50 51 51 51 51
33 24 25 24 24 22 18 16 16 19 21 21 22 25 25 25 22 22 24 25 27 29 30 30 33 40 44 46 49 50 50 51 52 51 50 49 49 49 50 50 51 51 51 51
26 28 26 16 21 22 18 21 19 16 18 23 25 25 26 24 23 22 25 27 28 28 29 29 30 33 41 45 48 49 51 51 51 51 51 51 51 50 50 51 51 52 53 54
26 26 25 19 19 8 7 19 21 20 24 27 33 31 29 27 25 25 28 29 29 30 30 29 31 32 36 43 47 49 50 51 51 51 50 50 51 51 52 53 53 50 48 46
27 26 22 20 13 12 13 21 16 25 22 37 36 37 37 32 29 29 29 29 30 28 29 30 31 32 42 44 47 50 50 51 51 51 51 52 53 51 49 47 45 43 41 39
26 28 24 19 17 12 24 26 33 32 23 36 37 37 37 39 34 30 31 32 36 35 35 34 37 43 45 47 49 50 51 51 50 49 48 48 47 46 44 42 40 38 36 34
26 26 23 21 20 19 19 20 33 26 26 33 36 37 38 37 40 42 40 42 46 46 45 45 45 46 48 50 50 50 48 45 45 45 44 44 43 41 40 38 36 33 32 30
24 24 24 23 23 19 27 32 31 31 32 32 33 36 41 39 41 42 45 47 46 46 46 47 47 48 49 49 47 45 43 43 42 40 39 39 38 37 36 34 33 31 30 28
20 23 22 23 21 26 33 29 29 31 33 32 32 35 41 41 41 45 45 45 46 45 45 46 46 45 45 46 44 41 39 38 37 35 33 33 33 33 33 32 31 30 28 27
18 20 23 22 22 20 21 27 30 33 32 29 34 40 40 38 44 44 44 45 44 44 43 42 40 39 40 40 40 39 37 35 33 32 31 30 30 29 29 30 30 29 28 27
21 21 20 20 21 22 23 23 25 29 31 31 37 39 40 43 42 41 40 40 42 40 37 35 34 34 35 35 35 35 35 33 30 29 29 28 28 27 26 27 27 26 28 30
24 22 21 22 23 23 23 25 32 32 33 37 36 38 43 45 41 38 35 35 34 33 33 32 32 32 32 33 33 32 32 31 30 29 28 28 27 26 25 24 24 25 25 24

GFSCGP_sfc_30mbdewp_093.txt.gz
Dewpoint
16 15 16 16 18 19 19 17 17 18 17 16 17 15 13 14 17 20 23 27 34 41 44 49 50 52 54 56 57 57 56 57 57 57 56 56 56 58 57 57 56 55 53 53
6 13 12 19 20 20 20 19 19 18 17 17 19 17 13 13 13 19 21 27 32 39 45 48 51 52 53 55 56 56 56 55 57 57 57 56 56 57 57 57 56 55 55 53
13 9 18 15 19 20 21 21 21 18 18 19 19 17 15 14 14 17 22 25 27 37 44 47 49 51 53 54 55 56 56 55 56 57 57 56 57 56 55 55 55 54 54 53
15 14 15 18 17 19 21 22 19 18 18 17 18 14 13 14 16 21 23 25 27 33 43 45 48 50 53 54 55 55 55 55 56 56 55 54 53 52 54 54 55 55 54 52
14 16 14 15 18 19 21 21 19 19 18 19 16 15 15 14 13 16 19 21 26 33 41 44 47 48 51 53 54 55 55 55 56 55 55 55 52 53 54 55 55 55 51 51
18 17 18 14 16 18 21 21 21 21 20 17 19 17 16 12 16 18 22 25 27 34 41 43 46 46 49 53 53 54 54 55 56 55 55 54 53 53 52 53 53 54 52 50
13 18 20 20 14 21 22 21 20 25 25 18 19 18 18 17 17 18 20 22 31 35 41 43 45 45 48 52 53 53 53 54 55 55 55 54 53 54 52 52 51 53 53 53
3 4 14 17 17 17 19 21 17 17 21 23 20 15 15 18 18 22 22 23 30 36 41 43 44 45 46 51 52 53 52 52 55 55 55 54 53 53 52 52 51 50 51 51
11 2 10 5 8 14 16 19 20 18 21 21 21 18 22 21 23 22 21 26 29 35 40 43 44 46 45 49 51 52 51 52 53 55 55 55 54 52 51 52 52 51 49 49
24 20 18 7 13 13 10 13 16 16 17 18 18 16 16 20 22 21 21 21 24 31 38 41 43 47 47 47 49 52 51 50 52 53 55 55 55 55 53 52 53 52 52 51
23 25 20 22 18 13 12 11 13 16 16 14 17 16 20 22 22 22 22 25 27 31 37 40 42 45 48 48 48 51 50 49 50 52 53 54 54 54 53 53 52 53 54 53
22 25 21 20 22 25 25 14 13 17 14 16 16 18 24 24 24 28 27 26 28 34 38 39 40 44 47 49 48 49 50 49 49 51 52 53 53 54 54 53 53 53 53 53
21 20 18 16 19 24 24 22 21 20 22 19 18 21 21 22 21 22 24 24 26 30 36 40 40 42 46 48 49 49 50 49 49 49 51 53 53 53 54 54 53 54 53 53
24 16 17 10 15 19 23 24 25 23 22 21 18 17 17 19 20 22 23 25 26 29 30 36 39 42 44 47 49 49 50 49 49 49 49 51 52 53 53 54 54 54 54 54
24 13 13 13 12 15 16 17 18 18 21 21 21 21 22 23 22 22 23 24 23 24 25 28 36 41 44 46 48 49 50 51 50 49 49 50 52 52 52 53 53 53 54 53
29 20 17 13 17 16 12 10 10 9 13 17 19 19 20 20 22 23 23 22 22 23 23 29 31 37 42 44 47 48 49 51 52 51 50 50 51 51 52 52 53 53 52 52
26 23 23 15 13 15 16 16 14 11 9 10 14 17 19 24 24 23 23 22 20 22 25 27 29 30 35 41 45 47 49 50 51 51 50 50 50 50 51 51 51 51 51 53
27 25 25 20 20 11 10 8 13 13 19 15 8 14 29 28 27 25 23 22 22 25 29 30 30 30 31 34 42 46 48 49 51 51 51 50 51 50 50 51 51 52 49 45
25 29 24 21 16 14 13 17 25 18 16 33 32 31 32 34 36 35 30 27 31 33 32 30 30 30 32 34 40 45 47 49 50 51 51 51 51 51 52 49 45 42 39 36
23 26 27 22 17 13 20 20 21 26 23 32 31 34 36 37 33 35 41 42 40 41 42 38 38 34 36 41 42 46 48 49 49 50 51 52 50 48 44 41 38 36 34 32
23 29 25 23 20 19 19 20 22 23 30 31 31 31 33 35 37 40 40 42 45 46 44 44 42 40 42 44 46 47 50 49 48 46 44 43 42 40 38 35 34 32 30 29
25 25 24 22 23 19 22 28 25 29 29 29 32 31 30 33 38 40 40 43 46 46 46 45 45 46 48 49 49 46 43 42 41 40 38 37 36 35 34 32 32 30 29 28
26 21 22 22 21 22 28 29 28 27 27 29 31 30 32 34 37 42 42 45 45 45 46 47 47 47 46 45 43 39 38 37 36 35 34 34 33 33 32 31 30 29 28 27
18 22 21 21 22 22 23 21 22 22 26 29 29 32 32 32 37 44 46 44 44 43 42 42 42 41 41 40 38 37 36 35 33 32 31 31 30 29 29 30 29 29 28 27
19 20 22 20 20 20 21 22 22 23 29 29 34 33 34 37 43 45 41 38 37 37 37 37 37 37 37 36 35 35 34 33 31 30 29 28 27 26 26 26 26 27 29 30
23 22 21 22 22 25 24 24 27 28 29 32 33 35 42 42 41 39 37 35 33 33 33 35 35 36 37 37 36 35 35 32 30 29 28 27 26 25 24 24 24 27 27 27

GFSCGP_sfc_30mbdewp_096.txt.gz
Dewpoint
10 4 8 14 17 18 20 19 19 19 19 19 18 17 17 18 16 18 19 24 26 35 42 51 50 52 54 55 57 57 57 58 58 57 57 58 58 60 60 60 59 59 57 54
14 6 10 10 13 17 17 18 19 21 20 20 19 17 19 20 18 15 13 19 26 34 48 50 51 52 54 55 56 57 56 57 57 57 57 57 58 58 58 58 57 57 55 54
14 9 9 11 9 12 18 19 21 23 23 23 21 19 19 20 20 19 17 19 22 33 45 48 51 51 53 54 56 56 56 57 57 57 57 57 57 57 56 56 55 55 55 54
18 17 15 7 13 10 12 19 21 24 24 19 21 17 20 19 17 17 17 18 23 25 45 48 50 51 53 54 55 55 55 56 57 57 56 55 54 54 54 54 55 56 55 55
16 16 15 13 11 17 15 16 19 24 25 23 22 20 19 19 17 16 19 23 26 27 44 47 48 51 53 54 56 55 55 56 56 56 56 54 53 53 53 52 53 55 55 55
12 15 14 14 15 13 16 17 20 21 21 21 23 23 19 18 18 17 16 21 24 29 43 46 48 49 52 54 55 55 55 55 56 56 55 54 53 53 52 51 51 52 53 54
9 13 14 16 17 16 15 17 18 19 21 25 25 22 21 21 20 18 21 24 28 33 42 44 46 47 51 54 53 55 55 54 56 55 56 55 54 53 52 52 51 51 51 52
7 5 4 16 18 16 13 16 18 16 21 21 30 23 21 21 21 19 20 21 30 34 42 43 46 46 50 53 53 53 54 54 55 56 56 55 54 53 53 53 52 53 51 50
18 13 4 11 18 17 15 18 19 18 20 29 28 28 28 21 22 22 21 23 30 35 41 43 46 46 48 52 53 54 54 54 53 55 55 55 54 54 53 53 52 53 53 52
28 22 9 10 12 15 15 18 17 19 17 16 20 27 24 23 22 23 21 22 28 34 40 42 45 47 47 51 52 54 53 53 54 54 55 55 54 54 53 53 52 52 52 52
23 23 24 8 6 6 7 7 9 12 16 14 16 22 30 29 27 27 27 26 26 29 38 42 43 48 47 50 52 54 53 52 53 55 55 55 54 54 53 53 53 52 51 51
23 22 23 22 19 22 24 11 11 11 14 16 16 19 32 28 27 26 26 26 28 30 35 41 43 47 48 49 50 52 52 51 53 54 55 55 55 55 54 53 54 53 53 52
24 19 18 17 17 22 22 23 18 13 14 16 18 21 27 27 22 22 23 24 27 30 35 39 42 45 48 49 49 51 52 51 52 53 54 55 55 55 55 55 53 54 54 53
26 14 15 16 16 17 20 21 24 23 23 19 20 19 26 33 24 22 23 25 25 26 29 36 39 41 46 49 49 50 51 51 50 52 53 54 55 55 54 54 54 53 54 54
23 11 10 10 12 11 11 16 19 20 23 21 22 20 21 22 21 21 23 26 25 24 24 26 34 39 43 47 50 50 51 51 51 50 52 54 54 55 55 55 55 55 55 54
23 20 19 15 11 8 10 11 12 12 13 14 17 19 21 21 20 22 23 23 23 24 24 23 26 33 41 44 49 50 51 51 51 50 50 52 54 54 54 55 55 55 55 55
24 22 20 17 17 12 11 11 9 7 6 7 8 13 16 19 20 22 27 29 27 25 24 23 29 30 38 44 47 49 51 52 52 51 50 51 53 53 54 54 54 54 55 55
28 24 24 20 20 15 16 10 10 12 13 13 24 15 9 18 29 30 33 40 41 41 41 41 38 35 33 35 45 48 50 51 53 52 51 51 52 53 53 53 54 51 47 43
21 22 26 19 17 15 13 14 17 26 25 32 32 33 35 36 35 31 38 39 40 42 46 46 44 43 41 37 35 46 48 49 52 52 52 51 51 52 52 50 44 41 38 36
21 25 26 22 18 13 21 20 20 23 24 31 31 31 33 33 33 32 37 39 40 43 45 45 46 44 44 40 39 40 46 49 51 52 52 52 52 48 43 40 37 35 33 31
22 26 24 24 23 21 24 21 23 19 30 31 32 32 32 30 32 35 38 39 40 44 45 46 46 46 46 47 43 47 49 48 47 45 44 43 42 39 36 34 33 31 30 30
22 26 26 24 22 20 21 21 25 29 27 27 29 32 31 33 34 34 34 40 43 45 44 46 46 48 47 47 46 44 42 42 41 39 38 37 36 35 33 32 31 30 29 28
27 23 23 22 21 23 27 31 31 26 23 23 30 29 31 31 31 33 41 45 44 43 42 43 44 44 43 42 41 39 38 37 37 35 34 33 33 32 31 30 30 29 29 27
29 27 29 32 29 28 30 32 30 23 22 27 29 32 30 31 35 41 44 42 39 38 38 39 40 40 38 38 37 36 36 35 34 32 31 31 31 30 30 30 30 29 28 27
26 31 29 31 23 25 25 28 30 29 28 28 34 32 33 41 43 42 39 38 36 35 36 36 37 36 36 35 34 34 34 32 31 30 29 28 28 27 27 27 28 28 29 29
26 26 27 28 27 28 29 27 28 27 28 34 34 33 39 39 38 37 35 33 32 30 29 28 28 30 35 36 35 34 33 31 29 27 27 26 26 25 24 22 22 26 25 25

GFSCGP_sfc_30mbdewp_099.txt.gz
Dewpoint
11 6 5 8 21 23 23 22 21 21 21 21 21 20 21 17 19 20 26 26 26 36 51 52 54 55 55 56 57 57 57 58 58 57 57 57 58 60 60 60 60 60 58 56
12 7 7 7 12 18 20 19 18 18 20 21 23 24 24 21 19 20 20 19 25 48 50 51 53 54 54 56 56 57 58 57 57 57 57 58 59 60 59 60 60 59 57 54
23 21 14 8 7 9 10 15 17 17 20 23 26 25 22 22 20 20 20 21 31 49 49 51 52 53 54 55 56 56 56 57 57 57 58 57 58 58 58 59 59 58 56 53
26 26 19 8 8 12 10 10 13 17 20 22 26 23 25 23 23 21 21 21 25 48 49 51 52 53 53 54 56 56 56 57 57 56 56 56 55 55 56 57 58 57 56 55
18 19 19 17 16 11 11 13 12 14 19 22 25 25 25 25 24 22 20 20 22 48 49 51 51 53 54 54 54 56 57 57 57 56 55 55 55 55 56 55 55 55 56 56
13 15 13 15 16 16 16 16 18 17 22 21 26 24 23 24 25 22 22 21 24 47 48 51 51 53 53 54 55 56 56 56 56 56 55 55 54 54 53 54 54 54 55 55
11 10 10 13 14 16 16 14 16 20 18 18 22 22 23 25 25 25 23 25 29 47 48 49 51 52 53 54 54 55 55 56 56 56 55 53 53 53 52 53 53 53 53 54
10 10 9 11 14 16 17 16 17 18 19 21 24 28 28 28 27 25 24 27 40 46 47 48 51 52 53 54 54 54 54 55 56 56 55 54 53 52 52 52 51 51 52 52
17 14 25 12 9 16 18 17 18 18 22 23 26 27 31 33 29 29 24 28 41 44 46 47 49 51 53 53 54 53 53 54 55 56 56 54 54 53 52 50 50 49 50 51
26 23 25 27 10 12 18 20 16 18 15 16 21 26 28 31 30 31 31 26 35 43 44 46 46 51 53 53 53 53 54 52 54 55 56 55 54 53 53 52 51 51 50 50
24 24 24 26 11 11 17 16 18 22 22 17 17 19 33 32 32 32 31 26 30 40 43 46 46 48 53 53 53 53 54 53 53 53 56 55 54 53 53 52 52 53 53 51
25 22 25 25 30 31 18 14 13 16 11 16 18 18 31 31 33 32 34 34 27 28 41 45 47 47 51 52 53 53 53 53 54 53 54 54 54 54 53 53 52 53 52 53
23 21 18 25 26 29 23 23 23 13 13 13 15 20 32 35 33 35 34 33 28 29 30 44 47 47 50 51 52 53 53 53 54 54 54 54 54 53 53 53 53 52 52 52
26 17 10 12 23 26 13 17 29 28 17 13 14 15 30 35 35 33 26 25 25 29 26 31 47 47 48 50 51 53 53 52 53 54 54 54 55 54 53 53 53 54 54 53
22 19 18 17 15 14 11 9 15 27 27 25 25 22 25 34 38 29 24 33 35 37 38 33 29 46 48 49 50 52 52 52 52 53 54 54 54 55 55 54 54 54 54 54
22 22 22 20 21 16 13 10 10 11 12 13 14 14 17 21 24 23 40 40 41 43 45 45 44 44 44 49 49 50 52 52 52 53 53 54 54 55 55 54 55 54 54 54
25 24 22 20 20 21 15 13 12 11 10 8 6 16 17 10 29 38 39 39 39 42 45 45 45 45 44 45 50 50 51 52 51 50 53 53 54 55 55 55 54 54 54 54
28 25 25 24 20 16 16 19 16 14 19 23 30 34 33 34 35 37 38 38 39 41 45 45 45 45 46 45 43 50 51 51 51 50 50 52 54 54 55 55 55 54 48 45
22 25 24 21 19 20 15 18 24 26 31 31 32 32 31 33 34 34 36 37 40 44 45 45 46 46 48 48 49 43 49 52 51 50 50 51 53 54 54 52 46 42 39 36
21 23 23 23 18 17 24 30 22 22 29 33 33 33 32 32 30 32 35 35 42 45 45 45 46 47 47 46 47 48 49 52 53 52 52 53 53 53 47 42 39 36 34 32
20 22 22 23 24 24 26 29 25 19 28 31 30 32 31 31 34 34 35 44 45 44 44 44 45 46 45 44 43 42 43 43 43 43 43 43 42 40 38 35 34 33 32 31
20 22 23 24 22 18 25 25 24 30 30 27 32 30 33 32 32 33 42 45 43 41 41 41 42 43 42 42 41 39 38 39 40 39 39 38 37 36 35 33 31 31 30 29
23 25 26 25 23 26 30 30 34 30 29 29 32 31 30 30 35 42 44 41 38 37 37 38 39 40 39 38 39 38 37 37 37 35 35 34 34 33 32 31 30 29 29 28
34 34 28 28 28 29 29 31 33 30 30 34 33 33 37 42 43 42 41 38 36 34 35 36 37 37 36 36 36 35 35 34 34 33 32 32 31 31 30 30 30 29 28 27
31 35 33 34 34 34 37 34 32 30 35 34 34 39 40 41 38 38 36 35 33 31 30 30 31 34 35 34 34 33 32 31 30 29 28 28 27 26 25 26 28 27 28 26
30 34 33 31 36 36 36 36 35 35 34 35 36 38 37 37 36 35 33 32 30 28 28 28 28 29 31 33 32 31 30 29 28 26 26 25 24 23 23 22 22 25 25 25

GFSCGP_sfc_30mbdewp_102.txt.gz
Dewpoint
14 10 10 10 22 23 24 24 23 24 23 20 19 20 22 26 26 23 21 24 26 41 52 52 55 56 56 56 56 56 56 57 58 58 57 58 58 59 60 61 61 62 59 54
22 10 10 8 8 16 23 23 22 22 22 20 19 19 23 26 26 24 22 21 26 45 51 53 55 55 56 56 55 56 57 58 57 57 57 57 58 59 59 60 60 60 60 57
26 20 12 8 7 7 11 17 19 19 19 18 18 20 24 26 27 28 26 24 31 46 50 53 54 54 55 55 55 56 57 57 56 57 57 58 59 60 59 59 58 59 58 57
28 29 27 17 8 8 5 8 10 12 14 13 26 20 23 25 27 27 26 26 30 46 50 52 53 53 54 54 55 56 56 56 57 57 57 57 57 57 58 58 58 56 56 56
16 25 28 26 21 11 8 10 13 12 11 15 19 20 23 26 25 26 26 26 28 47 50 51 52 53 54 55 55 55 56 57 56 56 56 56 56 57 58 58 57 55 55 56
14 17 17 22 22 18 11 11 13 14 16 16 23 24 22 25 25 25 25 26 26 44 50 51 53 53 54 54 55 56 56 56 56 55 56 56 55 55 56 56 56 55 55 55
13 14 14 13 10 13 16 15 14 13 16 16 20 20 20 24 26 26 26 27 27 34 50 51 52 53 53 53 54 56 56 56 56 55 55 55 55 55 55 55 55 55 54 54
11 9 11 11 10 11 13 15 14 11 16 16 21 20 25 32 33 32 30 29 37 47 50 51 52 52 53 53 54 55 56 55 56 55 54 54 54 54 54 55 54 54 54 54
19 12 22 11 11 12 12 16 19 15 25 22 23 26 29 33 34 34 30 30 38 48 50 50 52 52 53 53 54 54 55 56 55 56 55 53 54 53 53 54 54 54 54 55
23 20 24 27 25 13 15 19 16 18 12 13 20 21 23 31 34 34 33 33 39 46 48 50 51 53 53 54 54 54 54 55 56 56 55 54 53 53 53 53 52 52 54 54
24 25 24 26 24 15 11 13 19 20 20 14 15 17 33 33 35 35 38 37 36 36 46 48 51 52 53 54 53 53 53 53 55 56 56 54 53 53 52 51 51 50 52 52
28 24 23 23 29 30 27 19 20 18 20 22 21 20 33 32 34 39 38 39 38 34 35 46 48 52 53 53 53 53 53 52 53 54 56 55 54 53 52 51 51 51 50 51
28 27 20 21 25 29 21 25 28 25 22 22 17 18 35 37 35 34 36 40 39 42 42 48 48 52 52 52 53 53 53 52 53 53 55 55 55 53 53 52 52 52 52 52
29 27 16 16 26 28 18 17 28 29 21 21 18 16 34 36 35 32 36 40 41 43 44 46 50 51 52 53 53 53 53 53 53 53 53 54 54 54 54 53 52 52 53 52
26 21 23 21 20 19 18 13 17 25 28 23 24 26 31 32 35 38 40 41 41 45 44 44 45 49 48 52 52 53 53 53 54 53 53 53 54 54 54 53 53 52 52 52
28 21 24 21 21 22 19 19 16 19 25 24 17 10 26 31 38 37 39 39 41 44 43 43 43 44 47 47 52 53 53 54 54 54 53 53 53 54 54 53 53 53 53 53
27 25 23 19 24 21 6 17 16 13 20 23 16 32 29 37 37 37 38 39 41 42 42 44 44 45 47 48 49 49 53 54 53 53 54 54 54 54 54 54 53 53 53 54
22 25 25 21 19 7 17 20 20 30 32 31 32 31 34 36 36 36 36 40 43 43 44 44 44 47 47 46 46 48 52 53 53 53 53 54 54 54 54 54 54 54 53 50
22 25 22 19 19 19 14 25 24 26 31 33 32 31 31 34 35 33 37 43 44 44 44 43 44 46 45 44 44 45 46 49 53 52 52 54 54 54 54 54 53 47 44 42
20 23 22 23 18 12 21 27 27 26 29 32 33 32 32 31 29 32 42 44 44 44 42 42 43 44 43 42 43 43 43 44 45 48 53 53 54 54 54 48 43 40 38 35
18 21 20 21 21 24 26 26 26 19 25 31 32 31 32 31 33 36 45 43 41 40 39 39 40 41 41 40 41 41 41 40 41 43 46 46 47 45 41 39 36 34 32 31
19 18 20 22 20 14 26 28 23 30 31 31 31 32 31 31 38 43 41 39 37 37 37 38 38 39 38 38 39 39 38 38 39 39 39 40 40 38 36 35 33 32 31 30
25 21 21 22 21 24 30 31 36 32 30 32 31 31 34 39 42 41 39 37 35 34 34 35 37 37 36 36 36 36 36 37 37 35 34 34 34 34 33 32 31 30 30 29
33 35 28 26 28 34 35 34 34 32 33 33 36 40 41 40 39 37 36 34 32 30 30 31 32 35 34 34 34 34 34 34 33 32 32 32 31 31 31 30 29 29 28 26
32 35 34 33 34 34 36 35 37 35 36 39 39 38 38 37 36 35 33 32 30 28 28 29 29 31 33 33 32 32 31 30 28 28 27 26 26 26 26 26 26 26 27 26
36 32 31 31 37 37 38 39 38 35 37 38 36 34 35 35 34 33 31 29 28 27 27 27 28 29 30 31 31 31 30 28 27 25 25 25 24 24 24 24 24 26 25 25

GFSCGP_sfc_30mbdewp_105.txt.gz
Dewpoint
15 6 7 11 20 19 20 23 22 24 24 23 22 21 21 21 21 24 25 25 25 26 51 53 55 57 57 57 57 56 56 57 58 58 57 58 58 59 60 61 60 60 59 57
24 17 10 12 14 19 22 22 23 24 24 23 23 22 21 20 23 25 26 27 26 36 50 53 55 55 56 55 55 56 56 57 57 57 57 57 58 59 59 60 60 60 57 54
16 22 22 12 10 9 10 16 20 21 22 21 19 17 17 20 25 27 29 29 26 32 45 52 54 54 55 55 55 55 56 57 57 57 57 57 58 59 58 59 60 58 56 53
15 18 22 15 8 8 5 7 10 13 17 14 18 11 16 22 22 24 26 28 27 35 47 52 53 54 54 54 55 55 56 57 56 56 56 56 55 56 58 58 59 59 57 55
-1 25 23 22 24 10 7 9 8 9 9 10 10 17 18 23 25 24 24 26 27 36 45 51 53 53 54 54 55 55 56 55 55 56 56 56 57 57 58 57 57 58 58 57
1 17 25 27 26 23 13 11 11 13 13 10 11 14 13 16 21 25 26 26 27 31 46 51 53 53 54 54 55 55 55 55 56 56 56 56 56 57 57 56 55 56 57 57
10 12 14 15 13 14 16 15 12 14 15 11 15 18 17 23 23 28 33 33 30 30 45 50 52 53 53 54 54 54 55 54 55 54 56 56 56 57 57 56 55 54 55 56
7 -0 10 14 13 12 13 14 14 11 13 15 22 20 20 25 33 35 36 35 38 38 41 50 52 52 53 53 54 54 54 53 55 54 55 55 55 56 56 56 56 55 55 56
14 11 15 12 10 12 12 13 14 13 23 19 20 25 27 32 34 35 37 38 37 48 50 51 52 52 53 53 54 54 54 55 55 55 54 54 55 55 55 55 56 55 55 56
24 21 22 24 14 12 12 15 13 18 12 14 18 22 20 27 30 35 36 39 40 38 48 50 52 52 52 53 53 55 55 55 55 55 54 54 54 54 55 55 54 55 55 55
28 25 24 26 23 17 11 13 18 17 18 14 13 16 25 23 34 33 36 40 42 43 44 48 51 52 53 53 53 54 55 55 55 56 54 54 54 53 54 54 54 54 55 55
30 26 22 23 30 28 26 14 13 16 19 21 17 15 36 35 38 38 41 41 43 42 44 50 51 52 53 53 53 53 54 55 55 56 55 54 53 53 53 53 53 53 54 54
29 26 21 23 26 27 22 23 27 23 24 20 18 23 37 36 37 39 42 45 43 44 44 49 52 53 53 53 53 53 53 53 54 55 55 54 53 53 52 52 51 51 53 54
30 27 26 22 24 28 21 18 28 26 19 23 21 28 36 37 37 39 41 43 43 44 43 43 49 49 52 54 53 53 53 53 52 54 55 55 54 53 53 52 51 51 51 51
28 25 28 27 23 25 28 20 18 22 28 22 22 20 26 37 36 40 42 44 44 43 42 43 44 48 49 50 54 54 53 53 53 53 53 54 55 54 54 53 52 51 52 51
30 27 29 24 24 23 23 24 20 21 29 31 32 18 32 39 38 39 42 45 45 44 43 43 44 46 47 48 48 49 54 54 54 53 53 53 54 54 54 54 53 52 52 52
25 28 25 19 22 20 14 21 21 23 24 29 28 30 37 36 37 38 40 42 43 44 44 43 44 45 45 45 46 46 48 53 54 54 54 53 53 54 54 54 53 53 52 52
20 23 26 22 18 2 20 26 29 31 30 27 32 36 35 34 36 37 41 43 43 43 43 43 44 45 44 44 43 44 46 50 55 54 54 54 53 53 54 53 53 53 53 52
23 23 22 17 18 15 20 25 23 30 31 33 32 36 34 35 38 41 44 44 44 43 42 42 43 44 42 42 42 43 44 46 47 53 53 54 54 54 54 53 53 52 50 48
22 23 22 22 16 10 16 24 29 31 29 34 34 33 33 34 29 36 44 43 41 40 39 39 40 41 39 39 41 42 42 42 42 45 48 53 55 54 54 54 50 44 44 40
20 21 19 20 20 20 25 26 27 22 27 34 33 33 32 30 32 42 42 38 37 37 36 37 38 38 37 37 39 39 39 38 40 41 44 47 54 54 52 47 44 39 36 33
24 18 18 21 19 16 26 29 22 30 31 32 32 33 32 41 42 40 38 36 34 33 33 33 36 36 35 35 36 37 36 37 37 37 38 38 40 43 43 41 36 34 33 31
24 27 18 19 19 22 33 32 36 33 29 32 31 35 40 41 38 38 35 33 31 31 31 32 33 34 34 34 34 34 34 35 35 34 34 34 34 35 36 35 34 32 32 31
31 34 30 22 23 31 35 36 37 35 34 39 40 41 38 37 36 34 33 31 29 29 29 30 30 32 32 32 32 32 32 32 32 31 31 32 31 31 31 31 31 30 29 28
31 31 33 31 35 35 37 39 37 38 38 37 36 37 36 35 34 33 31 29 28 28 28 28 29 30 30 31 31 31 30 29 28 27 27 26 26 26 26 27 27 27 27 26
33 31 30 29 35 36 38 37 39 38 37 35 33 33 33 33 32 30 29 28 27 26 27 27 28 28 28 28 28 29 29 28 27 25 25 26 25 25 25 25 25 27 27 28

GFSCGP_sfc_30mbdewp_108.txt.gz
Dewpoint
13 9 7 10 15 14 17 20 20 23 25 23 23 23 23 23 23 22 21 22 24 26 34 52 54 57 58 58 58 58 58 57 58 58 58 58 58 59 60 60 60 60 60 60
20 15 11 7 11 16 18 18 18 23 25 24 23 22 23 23 21 20 20 21 23 27 35 51 54 56 57 57 57 57 57 57 58 57 57 57 59 59 59 60 60 59 60 59
14 17 18 16 11 11 15 17 19 20 22 22 21 16 12 14 19 20 23 26 28 28 28 42 52 54 56 56 56 56 56 56 57 57 57 57 58 59 58 59 59 60 59 58
13 13 16 20 16 11 8 12 14 16 15 9 17 8 12 15 15 22 25 26 27 28 30 38 51 53 55 55 55 55 56 55 56 57 56 56 56 56 57 58 60 59 57 55
8 15 11 14 16 11 9 7 8 10 11 11 10 7 11 17 19 15 22 31 33 30 29 35 49 53 54 54 54 55 55 55 56 56 55 55 54 56 58 58 58 56 56 55
1 16 15 12 15 16 12 10 11 12 11 8 9 8 10 14 15 26 34 36 41 40 29 38 51 53 54 54 54 55 54 55 55 55 56 55 54 57 57 56 56 55 55 55
-1 4 9 17 15 22 16 13 14 13 11 11 12 11 11 19 21 34 37 39 39 46 42 45 50 53 53 53 54 53 54 54 54 55 55 56 56 57 56 56 56 56 55 55
1 -1 6 10 15 14 21 19 16 10 13 13 19 13 16 21 30 36 39 41 41 42 46 48 51 52 53 53 53 54 54 54 54 55 55 56 56 57 57 56 55 56 56 56
12 5 11 10 11 13 13 15 18 13 21 16 18 23 26 31 34 38 39 41 41 43 45 48 51 52 52 52 52 53 53 53 53 54 55 55 56 56 57 57 56 56 57 57
25 20 24 19 11 12 14 17 14 15 11 11 15 21 19 30 33 37 38 40 41 43 45 50 51 52 52 53 53 53 53 52 53 53 53 54 55 55 56 56 56 56 56 57
30 24 22 26 19 11 10 11 14 16 18 11 11 14 26 24 33 39 40 41 42 42 45 51 51 52 53 53 53 53 53 53 53 54 54 54 54 55 55 55 55 55 56 56
32 27 21 21 32 30 21 13 14 14 15 20 16 15 36 38 38 38 39 44 44 42 43 48 53 53 53 53 53 53 54 54 54 55 54 54 54 54 54 55 55 55 55 55
32 26 22 22 28 30 23 21 27 16 22 18 17 19 36 39 38 39 40 43 44 41 42 44 49 53 53 53 53 52 53 54 55 55 55 53 53 53 53 54 54 54 55 54
33 30 25 21 24 26 28 23 21 22 14 15 21 30 35 37 39 39 41 44 44 45 44 43 46 48 50 54 54 53 53 53 53 55 55 54 53 53 53 53 53 54 54 54
29 25 28 24 25 26 28 32 26 27 25 18 25 21 27 38 39 40 42 44 44 44 45 44 45 45 46 48 51 54 53 53 53 53 54 55 54 54 53 52 51 51 53 53
30 22 27 21 18 16 22 30 31 25 28 31 28 32 38 40 42 43 44 44 43 44 45 45 46 44 44 44 45 47 49 54 53 52 53 54 55 54 53 53 52 51 51 51
24 28 24 16 22 16 21 24 26 25 26 28 21 32 37 38 41 42 42 43 43 44 43 43 44 46 42 42 43 44 46 48 53 53 53 53 54 54 54 53 52 52 52 52
24 22 26 19 22 2 15 29 26 28 30 29 32 36 36 37 39 42 44 43 43 42 42 41 41 43 41 40 41 42 44 46 47 53 54 53 53 53 54 54 53 52 52 52
26 23 20 18 17 15 22 25 26 27 31 33 34 37 38 42 42 42 43 43 41 39 39 39 40 39 38 38 39 41 42 42 44 44 49 54 54 53 54 53 53 53 52 51
24 24 21 21 14 9 14 24 27 31 28 37 37 36 39 39 34 39 40 39 38 37 36 37 38 37 36 36 37 39 39 39 39 40 42 45 48 54 53 53 53 50 50 45
23 21 18 19 18 18 21 25 29 24 25 36 36 37 38 33 35 41 37 36 35 34 33 34 36 35 34 34 36 37 36 35 37 38 39 39 42 49 54 53 48 45 40 35
24 21 18 19 17 12 22 27 26 30 35 36 34 34 38 41 39 37 35 33 31 31 32 32 34 34 33 33 33 33 33 34 35 35 35 35 36 38 44 46 40 38 35 32
23 27 24 21 18 21 30 33 36 37 31 34 33 42 42 39 37 35 33 31 30 30 30 30 31 32 31 31 31 31 31 32 32 32 32 32 33 33 35 35 35 34 33 31
30 32 28 28 28 33 38 38 38 40 40 40 40 40 38 36 34 33 32 30 29 28 28 29 30 29 29 30 30 30 30 29 29 28 28 28 28 29 30 31 31 32 31 30
30 31 30 31 34 36 37 38 40 38 36 35 35 35 35 34 32 31 30 28 27 27 28 28 28 28 27 27 27 29 29 28 27 27 27 26 27 27 27 27 27 27 29 29
33 31 28 28 34 35 34 36 38 36 35 34 32 31 32 32 30 29 27 27 26 26 26 26 25 25 26 25 25 26 27 26 26 25 25 26 26 26 26 25 26 29 29 29

GFSCGP_sfc_30mbdewp_111.txt.gz
Dewpoint
16 12 6 8 14 12 11 17 17 21 25 24 23 23 24 25 25 25 25 25 24 23 26 34 51 54 55 57 58 59 60 60 60 59 59 59 58 60 60 61 61 61 60 61
18 14 13 9 15 14 13 10 9 14 20 20 20 20 21 22 23 23 23 22 21 23 25 30 47 55 57 57 58 59 59 59 59 59 58 58 60 60 60 61 60 61 60 60
14 13 17 15 10 9 11 10 10 9 16 22 22 14 9 10 18 19 21 22 23 26 29 31 37 51 55 57 57 58 58 58 59 58 58 58 59 59 59 60 60 60 60 60
8 10 15 18 15 10 8 11 12 12 16 8 15 1 9 10 11 21 22 30 37 40 39 35 33 48 54 56 56 57 58 58 58 57 56 56 56 55 58 59 59 60 60 60
6 12 12 13 16 16 14 13 13 13 13 13 8 8 6 16 17 19 35 38 41 45 44 38 35 43 52 56 55 57 58 57 56 57 56 56 56 57 58 58 59 59 59 58
8 8 13 10 13 15 14 11 11 13 11 5 6 5 6 10 14 33 37 39 41 43 46 49 45 49 53 56 54 57 57 55 55 57 57 57 55 55 56 57 57 57 57 56
5 4 5 17 11 15 13 10 7 9 10 9 13 8 6 16 28 36 38 40 42 43 46 48 50 52 53 54 53 55 55 54 55 57 57 56 55 55 56 56 57 55 55 53
13 8 -1 0 12 13 13 12 8 2 7 7 14 10 11 19 25 39 41 41 42 43 47 49 50 52 53 53 53 54 53 54 55 56 56 55 56 56 57 57 57 55 55 53
20 6 7 3 9 20 20 15 15 14 21 16 17 19 24 30 37 39 41 41 42 45 50 50 51 52 52 52 53 53 54 54 54 55 55 55 56 57 57 56 57 57 56 55
29 23 22 18 4 11 19 21 17 17 10 10 14 19 15 31 36 39 40 41 41 46 49 51 52 52 53 52 53 54 54 53 54 54 54 55 55 57 57 57 56 57 57 55
31 27 21 23 9 1 6 15 18 17 17 8 7 12 25 28 36 39 41 40 41 44 48 50 52 53 53 53 53 53 53 53 53 53 54 54 55 56 56 56 56 56 57 56
32 29 23 18 33 34 13 7 16 14 14 16 13 13 36 38 39 39 42 40 41 40 45 47 49 53 53 53 53 53 53 54 54 53 53 54 54 55 56 55 56 56 56 57
31 28 22 18 26 28 29 25 21 13 20 13 13 13 38 39 39 43 43 42 42 41 41 42 44 47 49 53 53 53 54 53 54 54 54 54 54 54 54 55 55 56 55 56
34 29 26 19 22 26 27 31 31 25 11 10 17 29 36 37 38 41 43 44 45 43 42 42 44 44 45 47 53 54 54 54 54 55 55 54 54 54 54 54 55 55 55 55
30 25 28 27 23 25 28 28 30 27 25 12 11 20 34 37 39 40 44 44 44 43 43 44 46 44 44 44 45 47 51 54 54 55 54 54 54 54 54 54 54 54 55 54
25 24 27 24 23 18 20 29 29 24 30 29 29 31 38 40 42 43 43 42 44 44 44 44 46 45 43 42 42 43 46 47 52 53 54 54 54 54 54 53 53 53 54 54
24 24 21 14 21 22 17 25 28 26 27 28 24 33 40 42 43 42 42 43 42 41 41 41 42 41 40 40 40 42 44 46 48 53 53 54 54 54 54 54 53 52 53 53
24 22 22 20 21 11 15 30 27 27 29 31 35 37 39 41 43 43 43 42 40 39 39 38 40 37 37 38 39 41 42 43 45 45 50 53 54 55 54 54 53 53 52 52
28 23 21 18 16 15 24 25 26 26 30 34 36 38 41 41 39 41 40 39 38 37 37 37 38 36 36 35 37 39 39 39 40 40 42 43 46 53 54 54 54 53 52 52
26 26 22 17 16 10 17 21 26 31 26 38 37 40 38 38 35 38 38 37 35 34 35 36 36 34 33 34 36 36 36 36 37 37 39 40 42 44 52 54 54 53 52 51
23 24 20 18 16 17 21 23 31 22 27 39 40 40 39 37 37 38 36 33 33 33 33 33 34 33 32 32 34 34 33 33 35 35 36 36 37 39 42 53 52 50 45 41
24 22 19 20 18 9 26 27 28 33 37 37 38 38 40 39 37 35 33 32 32 31 30 31 32 32 31 31 31 31 31 31 32 32 33 33 33 35 37 42 41 40 38 35
23 27 24 22 19 26 36 37 38 38 35 37 39 41 40 38 35 34 32 31 30 29 29 30 30 29 29 29 30 30 29 29 30 29 29 29 30 31 32 34 35 34 33 32
27 32 28 28 30 33 37 39 38 38 38 40 40 39 37 34 34 32 30 29 28 29 29 29 28 27 26 26 27 28 29 28 28 27 28 28 28 28 29 30 31 32 31 30
29 31 29 28 31 35 34 37 36 35 35 34 34 34 33 32 31 30 29 28 27 27 26 26 25 26 25 25 25 26 26 27 27 27 27 27 27 27 27 28 28 29 30 29
32 27 25 25 29 32 29 32 35 34 35 33 31 31 31 31 29 28 27 26 25 25 25 24 24 25 24 23 23 24 25 26 26 25 26 26 26 26 26 26 26 29 29 29

GFSCGP_sfc_30mbdewp_114.txt.gz
Dewpoint
11 10 -3 -6 -2 -0 4 4 4 5 10 19 17 17 18 20 22 24 25 25 26 26 27 26 26 34 48 49 51 55 58 61 62 61 61 61 61 61 61 61 62 61 62 61
3 5 1 -5 -5 -2 5 3 3 2 4 12 12 9 10 13 17 21 22 23 21 21 22 22 25 38 50 51 54 55 57 60 61 61 61 60 60 60 60 61 61 61 61 61
4 -4 -1 2 7 3 4 2 1 4 5 7 9 9 9 10 11 13 14 15 15 18 19 26 29 34 46 52 55 55 57 59 61 61 60 60 59 59 59 60 61 61 61 61
8 4 -1 -2 8 6 2 2 6 7 6 4 7 2 2 10 10 10 13 17 22 28 34 36 34 33 41 52 56 57 57 58 60 60 59 57 56 55 57 58 59 61 60 61
10 7 5 4 -1 7 5 5 9 11 9 8 7 6 3 4 4 13 15 26 35 39 42 43 41 37 38 52 56 58 58 59 60 60 58 56 54 55 56 57 58 59 60 61
13 13 11 8 6 2 9 12 11 10 7 6 5 6 1 1 11 13 33 37 40 41 43 45 46 43 44 54 56 57 58 58 58 58 57 56 55 56 56 56 58 58 60 60
17 7 8 10 8 6 6 9 -0 0 2 -1 1 4 3 6 20 25 34 39 41 42 46 46 46 47 48 54 54 57 57 57 57 58 57 56 56 56 55 55 55 57 58 56
19 11 8 8 8 2 5 6 -1 -6 -4 -1 7 7 7 10 18 36 39 40 41 44 48 48 49 51 52 53 53 56 56 55 56 57 56 57 56 55 55 55 55 57 57 56
21 20 13 11 7 4 2 4 4 -5 -2 3 2 10 9 18 15 35 38 40 42 46 49 50 51 52 53 53 53 55 55 55 56 56 56 56 56 55 55 56 57 57 57 54
28 20 18 20 5 5 2 5 0 -3 -3 -5 -6 2 8 18 26 35 38 39 43 47 49 51 52 52 52 52 53 54 55 55 55 55 55 55 54 55 56 58 57 57 56 55
30 28 20 18 5 -1 7 12 6 -1 2 -4 -3 2 13 25 31 36 39 40 43 46 47 49 51 53 53 53 53 54 54 55 55 54 55 54 54 55 57 57 57 57 56 55
31 28 23 20 27 24 5 10 10 6 3 3 3 3 30 29 34 38 39 39 41 44 45 47 48 49 49 53 53 53 54 54 54 55 54 54 54 55 56 57 57 57 56 55
27 26 17 17 24 32 28 8 13 14 8 6 5 5 34 36 35 39 39 40 40 41 42 42 43 44 46 47 53 53 54 54 54 54 53 53 54 54 55 56 57 57 57 56
25 28 25 20 25 28 28 30 25 9 10 9 6 8 31 34 37 39 40 42 40 40 41 43 44 44 44 45 45 47 53 54 54 54 54 54 54 54 54 55 56 56 56 56
23 19 25 24 24 18 26 30 31 25 13 10 8 6 19 29 35 40 41 42 42 42 44 43 43 43 43 43 44 44 46 49 54 54 54 54 54 54 54 55 55 56 56 56
24 19 21 17 23 20 18 27 26 27 27 18 16 10 14 29 37 40 40 40 42 41 41 42 42 41 41 42 42 43 44 46 49 52 54 54 54 53 54 55 55 55 55 55
25 20 16 14 16 22 20 26 24 23 25 27 23 22 34 32 37 40 41 42 41 40 40 40 39 38 38 40 41 43 43 44 46 47 53 55 53 53 53 54 54 54 54 55
26 22 17 15 14 16 20 27 25 24 25 29 27 33 40 40 41 41 42 41 39 38 38 38 37 36 36 37 40 41 41 41 41 41 43 45 50 54 54 54 53 53 54 54
27 24 17 14 14 10 24 21 27 27 27 34 30 37 41 40 38 38 38 38 37 37 37 37 36 34 34 35 37 38 38 39 37 38 39 40 42 45 50 54 54 53 53 53
25 27 22 14 11 10 20 20 23 29 30 36 36 38 37 36 35 37 37 36 35 35 35 35 35 33 32 33 35 35 35 35 35 36 37 38 38 40 43 46 54 54 54 53
20 22 19 16 12 10 23 26 28 26 30 38 40 39 37 36 38 38 36 34 34 33 32 33 33 31 31 31 32 32 32 32 33 34 34 35 35 36 39 41 48 54 52 47
23 21 20 19 16 12 26 27 28 31 36 41 40 39 39 39 37 35 34 33 32 32 31 31 31 30 29 29 30 30 30 30 31 31 31 32 33 34 35 38 40 42 41 38
23 27 25 22 18 24 30 35 39 39 38 40 38 39 40 38 35 33 32 32 31 31 30 30 29 28 27 27 27 27 29 29 29 30 30 30 31 32 32 34 34 34 34 33
25 26 28 29 33 32 33 36 37 37 39 41 40 38 37 34 33 31 29 29 29 29 28 27 27 26 25 25 25 26 27 29 29 28 28 29 29 30 30 31 32 32 31 30
28 30 27 28 30 31 31 32 35 36 35 33 33 32 32 31 30 29 28 28 28 27 26 26 26 25 23 24 23 25 26 27 27 27 28 28 28 28 28 28 29 29 30 29
31 27 24 24 28 29 28 31 33 31 31 33 31 30 30 30 29 28 28 28 27 26 25 25 24 24 23 22 22 23 25 27 26 26 26 27 27 26 26 26 26 28 28 27

GFSCGP_sfc_30mbdewp_117.txt.gz
Dewpoint
9 4 5 -2 -3 -3 -4 -3 -2 6 6 8 9 11 12 17 19 21 23 24 25 26 27 27 28 28 28 32 42 45 49 58 62 62 63 62 61 62 62 62 62 62 63 62
7 2 -1 -5 -0 -5 -10 -7 -1 -3 -2 -0 2 8 16 15 13 16 19 21 23 25 26 27 27 28 31 34 46 48 51 56 61 62 62 62 61 61 61 60 61 62 62 62
4 3 3 2 -2 -4 -4 -8 -7 -5 -4 -0 3 2 3 6 9 8 9 13 18 20 22 21 22 25 29 41 47 50 52 55 60 61 62 60 60 61 60 60 60 61 61 62
9 9 5 2 -1 -3 -3 -3 -2 -6 -4 -4 1 -1 -1 2 4 7 9 11 13 13 15 17 21 26 30 38 48 51 52 54 62 62 60 59 58 58 59 58 60 60 60 61
14 11 7 4 3 0 -7 -3 2 -0 -1 1 -2 -6 -3 1 3 7 9 10 14 23 30 32 32 32 32 35 48 53 53 54 61 61 59 59 57 57 56 56 57 59 60 61
12 14 15 9 8 7 6 0 1 6 3 3 2 -3 -5 -2 4 9 17 19 27 35 37 38 39 44 39 49 53 57 55 55 59 60 59 59 57 55 54 55 56 58 59 60
13 12 11 12 9 8 7 4 -2 4 3 2 0 -2 -2 1 2 8 23 32 36 39 40 41 42 44 42 49 55 56 57 56 59 60 59 58 57 55 55 55 55 57 58 60
11 13 12 22 19 7 5 4 0 0 -1 -2 -5 -6 -4 1 3 17 29 35 38 39 44 44 47 48 49 52 54 55 56 58 58 59 59 57 57 56 55 55 54 55 57 58
19 15 19 18 18 18 3 2 2 3 -0 -3 -5 -5 2 4 8 27 33 35 39 42 45 47 50 51 52 52 53 54 56 57 57 58 59 57 56 55 54 54 55 56 57 58
25 20 19 19 29 23 6 3 1 2 1 -3 -5 -3 -1 5 12 25 30 35 41 45 47 49 50 52 52 52 53 54 56 56 57 58 57 56 56 55 55 56 57 57 58 57
22 28 18 25 25 13 4 2 -2 2 2 -2 -6 -5 1 4 11 19 29 36 41 44 46 48 50 51 52 53 53 54 55 56 56 57 56 55 54 55 55 56 57 57 57 57
29 26 20 19 26 30 24 2 -0 -1 1 -2 -4 -2 18 12 20 24 36 37 42 44 44 46 48 49 49 51 53 53 54 56 56 55 55 55 54 54 55 56 57 58 57 56
23 21 18 13 24 27 25 14 3 3 1 -3 -2 -0 24 22 30 36 38 38 40 41 42 43 44 45 47 47 47 48 54 55 55 55 54 54 54 54 55 56 57 58 56 55
24 22 22 19 24 23 27 27 15 10 10 1 1 -0 32 22 22 38 37 38 39 39 41 43 43 43 44 45 45 46 47 49 55 55 54 53 54 54 54 56 56 57 56 55
20 19 19 16 14 19 23 29 21 21 23 13 10 5 18 26 29 35 38 38 38 41 41 41 42 43 42 43 44 45 46 46 48 51 53 54 54 55 55 55 55 56 57 56
23 19 17 13 19 20 25 31 29 20 16 14 12 14 15 30 33 33 37 39 41 40 41 40 39 40 42 42 42 44 44 45 45 45 49 53 53 54 54 54 56 56 56 56
24 22 19 11 14 23 26 27 27 29 30 20 19 18 31 21 33 36 38 41 41 39 39 38 37 37 37 41 42 42 42 43 42 42 42 45 53 54 54 54 54 54 55 55
23 23 18 13 16 19 26 22 30 27 26 30 31 35 38 39 42 42 41 40 39 38 37 37 36 35 35 37 39 41 40 40 40 39 39 40 42 46 52 54 54 53 55 55
23 24 20 13 12 19 23 21 20 22 26 34 31 34 40 39 38 37 37 37 37 37 36 36 34 34 34 35 36 37 37 37 37 37 37 38 39 41 44 49 54 53 53 54
22 26 22 15 10 13 19 21 22 24 27 35 38 39 39 39 35 35 36 35 34 34 34 34 33 32 32 32 34 34 34 34 35 35 36 36 38 38 39 41 45 52 54 53
18 21 19 15 16 11 23 25 28 26 29 37 37 39 39 36 37 37 36 34 33 33 33 33 32 30 30 30 31 31 31 31 32 34 34 34 35 35 36 38 42 46 52 48
19 22 24 19 15 15 32 28 29 34 37 37 39 39 37 36 37 36 35 33 32 32 31 30 30 29 28 28 28 28 29 30 31 31 33 32 33 34 34 36 37 40 42 39
23 25 24 24 23 33 34 33 37 36 37 37 41 41 39 36 34 33 31 30 29 29 28 28 28 28 27 26 27 27 28 29 30 30 30 31 31 32 32 32 33 34 35 34
22 29 26 23 28 30 31 32 34 36 35 36 36 37 36 33 31 29 29 29 28 27 27 27 27 25 25 25 25 26 28 29 29 29 29 29 30 29 30 31 31 31 31 31
27 31 26 23 26 28 28 30 31 33 33 35 34 31 31 30 29 28 28 28 27 27 26 26 26 24 23 24 24 26 27 29 28 28 28 28 28 28 27 27 28 28 29 30
31 28 24 23 29 28 29 31 32 30 30 31 33 32 29 29 29 28 28 28 27 26 26 25 25 24 23 23 24 25 27 28 28 27 27 27 26 26 26 25 25 28 27 27

GFSCGP_sfc_30mbdewp_120.txt.gz
Dewpoint
6 5 4 0 3 3 0 -1 -3 -2 0 2 7 9 10 11 17 19 21 25 25 26 27 28 29 30 31 33 41 43 56 60 64 64 64 63 63 63 64 64 64 63 64 64
7 4 2 2 2 -2 -5 -5 -2 -3 -5 -3 -0 1 8 7 10 16 19 20 24 25 26 29 30 33 35 36 41 46 46 59 62 64 64 63 63 63 62 63 63 63 63 63
8 9 9 6 6 3 2 -0 -2 -2 -3 -5 -1 3 3 4 6 9 14 12 12 21 25 27 29 32 37 38 46 48 49 52 60 63 64 63 62 62 62 62 62 62 62 63
14 13 13 13 10 7 4 3 -0 -3 -3 -7 -6 -2 0 1 4 6 7 9 12 13 16 26 28 29 33 40 48 51 50 52 59 63 62 62 61 60 60 61 60 62 61 61
11 9 7 7 6 7 10 9 4 -2 -4 0 -3 -6 -3 -1 0 1 4 10 13 14 16 18 20 22 29 36 49 50 52 53 61 62 62 61 60 60 60 60 60 60 61 61
9 10 10 9 13 19 19 14 7 7 3 -2 1 -2 -3 -2 -1 -3 5 11 13 19 30 32 33 35 38 51 53 55 54 54 63 62 62 61 60 60 59 59 59 60 60 61
10 9 10 14 15 17 19 18 5 6 4 -1 3 1 2 3 -0 -0 10 28 33 37 38 38 38 42 43 52 56 57 57 55 62 62 62 61 60 60 58 57 58 59 60 60
10 11 12 15 17 21 28 21 9 5 3 -2 2 1 2 5 3 2 26 35 36 38 42 44 47 48 49 54 57 56 56 57 60 61 61 61 59 60 57 57 57 58 59 60
17 11 15 17 17 19 25 13 11 7 7 4 2 1 4 3 1 1 32 35 36 40 44 48 50 52 53 53 54 55 55 57 59 59 60 60 59 58 57 56 56 57 58 60
14 15 16 16 22 24 26 22 13 7 3 2 3 2 -1 -3 -2 7 32 34 41 46 48 50 51 52 52 52 53 54 55 58 58 58 59 60 58 58 56 56 56 57 59 58
16 22 17 18 28 28 29 28 18 11 3 1 4 7 2 6 4 23 31 37 44 45 48 48 49 50 52 53 53 54 55 56 57 57 58 59 57 57 56 56 57 58 58 58
17 19 17 16 28 26 21 25 26 5 3 4 4 6 8 19 20 25 27 37 44 46 47 47 48 49 49 49 49 50 54 55 57 57 57 58 58 56 55 56 58 58 58 56
19 15 18 12 16 18 17 18 22 25 21 6 8 6 6 15 33 21 36 43 46 43 43 44 44 45 46 46 46 47 49 50 54 56 56 56 55 54 55 56 58 57 57 56
19 20 20 18 20 20 16 22 28 28 21 9 4 2 -0 21 32 44 44 45 47 42 42 43 43 43 44 45 45 46 46 47 49 51 56 56 54 55 55 57 57 57 57 55
17 18 21 18 16 14 20 19 29 25 21 24 14 6 10 28 37 43 42 45 42 41 41 42 43 42 43 43 44 44 45 45 46 47 49 53 55 55 54 55 57 57 57 55
19 20 21 17 16 13 14 27 33 25 20 20 20 17 31 28 38 41 42 44 43 40 39 39 39 40 42 43 42 42 43 43 43 43 43 44 47 54 55 56 56 57 57 55
20 21 20 18 14 16 22 29 28 32 32 32 26 25 34 39 41 40 38 43 40 38 37 37 37 36 37 41 42 41 41 41 41 41 41 41 42 45 49 55 56 56 56 56
17 20 21 20 18 16 29 25 21 25 33 35 34 36 39 39 40 42 42 42 39 38 36 35 35 34 35 36 38 39 39 39 38 39 39 39 40 40 43 47 54 55 56 56
17 20 22 17 13 14 26 24 23 23 27 34 36 36 39 37 36 36 36 37 38 36 35 34 33 33 33 34 35 35 35 36 36 36 37 38 38 38 39 41 45 50 55 55
21 20 25 21 18 11 27 24 29 26 27 36 36 37 39 38 32 34 33 33 33 33 33 32 31 31 30 31 32 32 32 33 33 34 35 36 36 36 37 37 40 44 48 54
18 21 21 21 18 22 30 29 29 20 26 36 33 36 35 33 37 36 33 32 32 31 31 31 29 28 28 29 29 29 30 30 32 32 33 34 35 35 35 36 38 40 45 45
20 20 20 22 17 18 32 31 25 31 35 35 33 37 38 38 36 35 32 30 29 28 28 28 28 27 27 27 27 28 29 30 31 31 31 31 32 33 34 34 35 36 38 37
23 28 26 27 25 31 30 30 32 34 33 33 32 39 37 32 30 29 28 28 27 27 27 27 26 26 26 26 26 27 28 29 29 30 30 30 29 30 32 32 32 33 34 33
18 28 27 23 29 28 29 30 32 32 32 34 34 35 32 31 30 28 29 28 26 26 26 26 25 24 24 25 26 26 29 29 28 28 28 28 28 27 27 29 30 29 31 32
28 28 25 24 25 27 28 31 31 32 32 32 34 35 30 29 29 29 28 27 27 26 26 25 24 24 23 24 25 26 28 29 27 27 27 27 26 26 25 26 26 26 27 29
31 28 23 20 30 28 29 31 32 31 30 31 31 32 33 29 28 27 27 26 25 25 24 24 23 23 23 23 25 26 28 29 27 26 26 26 26 25 24 23 24 27 27 27

GFSCGP_sfc_30mbdewp_123.txt.gz
Dewpoint
9 7 6 6 8 8 6 5 3 3 2 -0 -2 -3 -3 2 9 10 16 19 22 26 27 26 26 26 25 25 36 60 62 64 67 66 65 65 64 64 64 65 65 65 66 65
8 8 10 13 12 11 10 7 5 5 3 0 -1 -2 -4 -2 2 6 7 8 16 22 26 27 30 30 30 31 39 53 60 64 65 66 66 65 64 63 64 65 65 64 65 64
11 14 12 10 8 10 12 10 9 8 7 5 1 -2 -4 -1 5 4 4 4 8 16 14 18 27 33 36 35 44 52 58 63 64 65 65 63 63 63 62 63 63 63 63 64
13 14 10 9 8 8 6 12 14 13 14 5 5 -4 -3 -2 3 3 4 3 6 8 9 12 23 29 31 36 46 48 55 61 63 64 64 62 62 61 61 61 62 62 62 64
13 14 11 9 9 12 15 17 16 17 16 13 6 1 -4 -3 -2 -1 1 2 5 7 8 10 16 27 28 34 47 48 49 58 61 64 63 62 61 61 61 61 61 61 61 61
17 16 11 10 12 14 15 21 20 18 15 11 7 6 -2 -2 -4 -3 -1 2 5 4 8 13 26 33 45 45 51 51 50 55 62 63 62 62 61 60 60 60 59 60 61 61
16 14 15 13 12 14 17 23 19 13 10 7 7 6 3 3 -1 -1 1 6 34 29 29 42 48 50 56 56 56 56 57 61 62 62 61 61 60 60 59 59 59 59 60 61
17 16 14 13 13 15 17 18 18 14 8 8 5 5 2 4 4 4 4 35 39 45 50 51 52 53 54 56 56 55 55 56 61 61 61 61 61 61 60 60 60 59 60 60
16 14 14 14 16 24 28 27 28 25 21 14 8 8 8 0 4 6 7 34 42 49 51 51 52 52 52 53 54 54 54 56 58 60 62 61 61 61 60 59 59 60 60 60
18 13 12 17 18 23 24 31 25 21 11 7 9 9 6 7 10 5 17 39 49 51 51 50 51 51 52 53 54 54 55 57 58 58 60 60 60 59 58 58 57 58 59 60
17 21 16 17 14 15 22 25 28 30 18 8 5 6 8 10 13 23 28 46 49 49 50 50 50 50 50 51 51 53 54 56 57 57 58 59 59 58 57 56 57 58 59 59
20 18 15 13 15 18 23 19 26 23 22 21 9 5 6 7 32 37 39 49 49 49 48 48 47 47 47 47 48 49 50 52 54 57 57 58 59 58 57 56 58 58 58 58
17 16 17 13 13 21 20 20 17 27 28 20 14 8 11 31 39 45 46 48 46 45 45 45 45 45 45 46 46 46 47 48 51 54 57 57 57 57 56 56 57 58 57 56
21 21 22 18 18 20 20 19 18 24 26 19 14 18 27 33 39 43 42 42 47 46 45 44 44 44 44 44 44 45 45 46 47 49 53 54 55 56 56 57 58 57 56 56
17 15 17 20 21 20 19 19 30 29 29 23 23 25 31 38 41 43 43 41 46 45 43 43 42 43 43 43 42 42 42 43 44 45 45 46 49 52 56 56 58 57 56 56
17 16 19 20 21 20 18 30 31 32 31 31 31 27 38 40 39 39 38 38 39 41 39 38 40 42 42 42 41 41 40 40 41 42 42 43 44 47 50 55 57 57 56 55
17 16 18 18 21 20 24 29 29 31 31 31 28 34 39 38 38 38 39 39 39 39 35 35 35 36 39 41 40 39 39 38 38 38 39 40 41 43 43 47 55 57 56 55
17 17 19 19 20 14 27 25 26 30 31 32 31 34 39 39 41 42 42 41 41 39 35 33 33 32 33 36 38 37 36 36 36 36 37 37 39 40 41 42 45 49 56 55
29 27 23 19 20 18 25 24 27 27 29 33 30 32 37 37 35 34 35 36 35 33 32 31 30 30 30 32 33 32 33 33 33 34 35 36 36 37 38 39 40 42 46 54
22 28 22 21 20 18 23 28 29 25 25 33 31 32 33 38 30 33 33 32 31 32 29 29 28 27 28 29 30 30 31 32 32 32 33 33 34 35 36 36 38 40 42 46
20 22 21 20 19 24 27 29 28 18 22 32 31 34 32 30 33 35 33 28 28 28 29 28 27 26 27 28 29 29 29 30 31 32 31 31 31 33 34 35 36 37 40 41
24 22 20 22 19 14 29 26 22 27 32 32 31 34 35 34 34 34 32 29 27 27 26 26 26 26 26 27 28 28 28 29 30 30 30 29 28 29 31 33 34 35 35 34
21 26 22 24 24 30 30 29 31 31 30 31 32 33 35 32 31 30 28 27 26 26 25 25 24 25 25 26 26 27 29 28 29 28 28 28 27 27 28 29 30 32 33 32
22 27 25 25 28 29 29 29 30 32 30 32 33 35 34 32 32 28 26 26 26 25 24 24 24 23 24 24 26 28 29 28 27 27 27 26 26 25 26 26 27 27 29 32
25 27 24 25 25 26 30 29 29 31 32 31 33 33 33 32 28 26 25 24 24 24 23 24 23 23 23 24 26 28 29 28 27 27 27 25 25 24 24 25 26 25 26 28
29 22 20 19 28 28 28 31 30 29 31 31 31 31 32 30 28 26 25 24 23 23 23 22 22 22 23 24 26 28 29 28 26 25 25 26 25 24 23 23 24 27 27 27

GFSCGP_sfc_30mbdewp_129.txt.gz
Dewpoint
10 9 10 10 11 11 10 9 8 7 8 9 11 13 13 14 14 12 10 10 9 5 3 6 14 24 26 26 32 54 62 64 66 66 65 64 64 64 65 65 65 65 65 64
7 10 14 12 12 11 10 9 7 9 12 15 15 14 14 14 13 13 12 10 7 5 3 6 11 14 22 26 29 40 58 63 65 65 65 64 64 65 64 65 66 65 65 64
7 14 15 12 10 9 9 8 9 13 13 13 12 11 10 11 12 13 14 13 10 11 6 1 3 8 15 22 28 38 52 60 64 65 65 64 63 63 64 64 65 65 64 64
13 17 12 12 10 12 10 12 13 12 12 11 15 13 15 14 13 13 12 12 11 11 6 3 5 6 9 14 27 31 49 59 63 65 64 63 62 62 63 64 64 65 65 64
11 13 12 12 12 12 10 13 14 14 14 14 15 16 14 13 12 12 13 12 11 7 3 2 5 6 9 14 29 34 43 57 62 65 64 63 62 63 63 64 64 64 65 65
13 16 15 14 14 13 15 15 18 19 18 15 15 16 13 13 12 13 14 12 11 7 4 4 6 7 12 35 32 47 45 58 62 64 64 63 62 62 62 63 63 63 63 64
16 15 16 15 13 14 15 14 16 13 11 9 13 19 15 16 16 11 13 11 11 11 9 9 8 7 37 39 48 52 58 61 64 64 64 63 63 62 62 62 61 62 62 62
13 8 13 15 12 11 15 24 18 11 10 13 19 17 13 15 29 32 29 13 37 49 51 51 52 51 52 54 56 59 60 62 64 64 64 63 62 62 62 62 62 62 62 61
11 13 15 13 14 15 17 17 18 21 21 19 14 16 15 21 36 39 41 43 47 48 49 50 50 52 53 54 54 56 59 60 61 62 61 62 62 61 61 61 61 61 61 61
15 11 13 15 17 20 19 18 18 24 14 11 14 13 14 22 34 34 39 41 40 46 48 49 49 49 50 51 52 53 55 56 58 60 61 61 61 61 61 61 60 60 60 60
16 15 14 13 12 11 15 16 18 22 23 17 15 12 17 30 34 35 39 40 45 46 48 48 47 47 47 48 49 49 51 52 55 57 59 60 60 61 60 60 60 60 60 60
17 16 12 10 13 19 18 13 18 21 17 19 21 18 33 37 37 40 39 41 44 45 45 45 45 44 44 44 45 46 47 48 50 56 57 58 59 59 60 60 60 60 60 60
17 14 9 6 8 12 13 14 18 29 28 22 21 18 28 34 36 40 40 40 43 43 43 43 42 42 41 41 41 42 43 44 46 48 50 52 53 58 58 58 59 60 59 59
21 17 9 6 7 14 15 14 22 28 22 22 21 23 32 31 34 38 39 38 37 38 40 41 40 40 40 40 39 39 40 41 42 43 44 45 48 50 57 58 58 58 58 58
15 7 17 17 16 14 14 18 26 26 27 22 23 24 30 30 34 38 39 38 38 37 36 36 38 37 36 36 37 38 38 39 39 39 40 40 43 46 48 52 57 58 57 57
16 5 15 13 16 16 17 26 24 27 28 23 22 22 30 35 36 39 39 38 37 36 34 35 34 35 34 33 34 35 36 37 37 37 37 38 39 41 43 46 49 56 57 56
14 16 15 15 16 18 22 23 21 24 27 26 21 27 31 30 31 31 35 35 34 34 33 32 32 31 30 31 32 33 34 35 35 34 34 35 36 38 39 41 43 46 49 55
15 17 17 17 19 11 23 27 22 23 28 27 28 29 30 31 31 31 30 30 27 27 27 28 29 30 29 29 30 31 32 33 33 33 32 33 34 35 36 37 39 41 43 47
19 21 22 19 19 19 23 22 22 23 23 26 28 29 31 33 32 30 31 31 31 26 25 26 26 27 28 28 29 29 30 30 31 31 31 31 31 32 33 34 36 38 39 42
27 27 24 22 17 13 19 22 26 25 19 27 29 28 30 30 24 27 31 30 26 24 25 25 25 26 26 27 29 28 28 29 29 29 29 29 30 30 31 31 34 35 38 40
22 21 20 21 19 21 25 25 25 20 17 28 30 30 30 27 28 30 31 27 27 24 24 24 25 25 25 27 29 28 27 28 28 28 28 28 28 29 29 29 30 33 35 34
18 18 18 19 18 11 27 24 19 25 27 29 30 31 30 30 30 30 28 25 24 23 23 23 24 24 25 27 28 28 27 27 27 27 26 26 27 28 28 27 28 30 33 32
19 21 16 20 18 28 28 26 27 29 28 29 30 32 31 28 28 28 24 23 24 23 23 23 23 23 25 27 28 27 28 26 27 26 25 25 26 26 27 27 27 28 30 31
18 28 24 23 24 28 28 28 28 28 31 30 32 31 30 28 28 26 25 22 22 22 21 22 22 22 23 25 27 28 28 26 26 26 25 24 25 25 26 26 26 26 26 27
17 23 23 24 27 29 29 29 28 28 30 31 30 31 30 27 26 25 24 22 21 21 20 21 21 22 23 24 26 27 27 27 25 24 25 24 23 24 24 26 26 25 26 26
23 20 20 17 26 25 28 29 28 28 29 32 28 27 30 27 24 23 23 24 22 21 21 20 21 21 22 23 25 26 26 26 25 23 23 23 23 23 23 24 24 27 27 27

GFSCGP_sfc_30mbdewp_132.txt.gz
Dewpoint
11 10 9 10 11 11 10 9 8 7 8 10 10 12 13 12 13 13 14 15 14 14 13 11 9 8 6 12 25 41 61 64 64 64 63 62 62 62 63 63 63 63 64 63
10 12 13 12 11 10 9 9 7 9 11 12 11 10 10 12 13 14 14 14 14 13 13 13 10 8 11 16 24 30 57 63 65 64 64 63 63 63 63 63 63 63 64 63
7 14 15 11 11 10 9 8 9 10 12 11 10 8 7 11 15 16 16 16 16 15 14 14 14 11 9 10 18 24 35 61 65 64 64 64 64 64 63 63 63 63 64 63
15 17 11 11 11 12 7 10 13 13 11 8 14 8 11 13 14 16 22 25 16 15 14 14 14 13 8 5 13 25 28 45 63 64 64 63 63 62 63 63 63 63 64 64
11 13 10 11 12 13 9 13 13 12 14 16 14 14 12 14 15 15 31 36 33 16 16 14 13 12 8 6 11 22 27 39 55 63 64 63 62 62 63 63 63 63 64 64
13 16 15 14 13 13 15 15 16 20 18 10 13 13 11 14 15 23 35 38 41 42 15 14 13 11 6 7 19 27 29 39 55 63 64 63 62 62 62 63 63 62 63 64
14 15 16 16 13 14 15 17 8 5 6 4 10 15 15 20 18 32 34 37 38 43 46 43 41 39 7 20 32 40 36 41 55 62 64 63 62 62 62 62 62 62 63 64
8 7 13 15 12 11 21 20 13 6 8 9 16 16 16 16 26 32 37 37 42 43 48 49 48 51 52 52 52 52 52 50 57 63 64 64 63 63 62 62 62 62 63 63
12 11 16 14 15 14 15 13 18 16 18 17 14 14 14 30 33 37 38 37 40 45 47 46 47 48 50 51 54 58 60 61 63 64 64 64 63 63 62 62 62 62 62 62
16 7 13 14 17 16 17 17 14 20 13 9 10 11 18 28 32 34 37 40 41 42 43 44 44 45 46 47 49 52 55 56 59 61 63 63 63 62 62 62 62 62 62 62
17 11 11 12 10 9 15 14 15 20 20 15 14 12 25 28 31 34 38 40 40 39 40 42 41 44 43 43 44 45 48 51 53 57 60 61 61 61 61 61 61 61 61 61
18 17 11 8 13 17 17 13 18 19 16 21 21 17 24 24 31 34 37 38 38 37 37 38 38 41 41 40 40 41 43 45 47 50 53 55 58 60 60 60 60 60 60 60
17 13 6 -3 4 9 12 13 15 18 24 21 18 15 24 28 33 35 38 37 37 36 35 36 35 35 37 38 38 39 39 41 43 45 46 48 50 53 57 59 59 59 59 59
20 15 6 -8 -7 9 10 12 16 25 20 22 20 22 24 28 30 37 37 37 34 33 32 33 33 32 33 35 36 37 37 38 39 40 41 42 44 47 49 56 58 59 59 59
12 3 15 15 14 15 14 14 24 23 23 21 22 23 27 29 29 33 34 32 32 31 31 31 31 32 30 31 33 34 35 36 37 37 37 38 40 42 44 47 51 57 58 58
16 2 14 14 14 15 16 23 23 23 27 23 23 21 30 32 32 30 31 31 30 29 30 30 31 31 29 29 31 32 33 34 34 35 35 36 37 38 40 42 45 48 54 56
12 12 16 12 16 18 20 20 22 22 25 25 21 26 31 30 29 28 29 30 29 27 26 28 29 29 30 29 29 30 31 32 32 32 32 33 35 35 36 38 40 42 45 49
15 17 17 17 20 11 19 23 22 21 26 27 27 29 29 31 31 31 29 28 28 25 25 25 26 27 29 30 29 29 30 30 30 30 30 31 32 33 34 35 36 38 41 44
17 19 20 17 19 19 24 24 21 21 23 26 26 28 30 30 31 31 30 28 26 25 24 24 25 26 27 28 29 28 28 29 28 28 29 29 30 31 31 32 33 36 38 40
20 24 25 22 17 11 18 23 26 25 19 26 27 27 29 29 22 25 30 28 24 24 24 23 24 25 26 27 28 27 27 27 27 27 28 28 29 29 29 29 31 34 35 36
24 23 21 21 17 19 24 25 26 19 18 27 28 29 30 27 28 30 29 25 24 23 23 23 23 24 26 27 28 27 26 26 27 26 27 27 27 28 28 29 30 32 34 33
17 16 17 20 18 11 26 22 16 24 27 28 29 30 30 30 30 29 27 23 23 22 22 22 23 23 25 27 27 26 26 26 27 26 25 26 26 27 27 28 28 30 31 32
17 19 16 19 14 25 27 25 26 27 28 29 29 31 31 29 27 27 25 22 22 21 21 21 21 22 23 25 27 26 27 26 26 25 24 24 25 26 27 26 26 27 28 28
20 27 23 22 21 27 28 27 28 27 28 31 31 32 31 28 27 26 24 22 21 20 20 20 21 21 22 24 26 26 26 27 25 24 24 24 24 25 26 26 26 26 26 25
18 25 24 24 25 28 29 29 28 27 29 30 32 30 30 27 25 24 23 22 20 20 20 20 20 21 22 23 24 25 25 25 25 23 23 23 23 24 24 26 26 26 27 26
21 15 15 13 21 24 27 29 28 27 30 29 27 26 27 26 23 23 22 22 21 20 19 19 19 20 21 22 23 24 24 23 24 23 23 23 23 22 23 23 23 25 26 27